weather.gov     
National Weather Service

Regional Weather Roundup
NWS Homepage
This page is being discontinued on March 12, 2014.
The same data is available at this site. Please update your bookmarks.
Thank you, and we apologize for the inconvenience.
Please send an email to SR-SRH.Webmaster@noaa.gov with any concerns.


Current Version
Previous Version:    01  02  03  04  05  06  07  08  09  10  11  12  13  14  15  16  17  18  19  20  21  22  23  24  25  26  27  28  29  30  
   31  32  33  34  35  36  37  38  39  40  41  42  43  44  45  46  47  48  49  50  51  52  53  54  55  56  57  58  59  
[Printable]
067
ASUS41 KGYX 240210
RWRGYX
WEATHER ROUNDUP FOR MAINE AND NEW HAMPSHIRE
NATIONAL WEATHER SERVICE GRAY ME
1000 PM EDT TUE SEP 23 2014

MEZ002-005-006-010-012-015-018-020-021-024-026-027-029-240300-
MAINE

CITY           SKY/WX    TMP DP  RH WIND       PRES   REMARKS
PORTLAND       CLEAR     53  47  79 CALM      30.37R
SANFORD        CLEAR     54  45  71 W6        30.37S
BAR HARBOR     CLEAR     54  48  82 CALM      30.35R
WISCASSET      CLEAR     49  47  93 CALM      30.38R
ROCKLAND       CLEAR     48  45  87 CALM      30.36R
FRYEBURG       PTCLDY    51  47  86 CALM      30.38R
LEWISTONAUBURN PTCLDY    52  46  82 N3        30.37S
AUGUSTA        CLEAR     55  46  71 W6        30.37R
WATERVILLE     CLEAR     52  45  76 W6        30.32R
BANGOR         CLEAR     50  44  80 SW6       30.36R
GREENVILLE       N/A     50  45  83 VRB3      30.33R
MILLINOCKET    CLEAR     53  46  77 VRB3      30.34R
HOULTON        CLEAR     47  43  86 W5        30.31R
PRESQUE ISLE   CLEAR     46  39  76 NW8       30.31R
FRENCHVILLE    CLEAR     43  36  76 NW9       30.30R
CARIBOU        CLEAR     46  39  76 NW9       30.31R
$$

NHZ002-005-008-009-011-012-014-240300-
NEW HAMPSHIRE

CITY           SKY/WX    TMP DP  RH WIND       PRES   REMARKS
PORTSMOUTH     CLEAR     55  48  76 SW3       30.37R
ROCHESTER      CLEAR     55  48  77 NW3       30.37R
NASHUA         CLEAR     54  51  89 NE5       30.40R
MANCHESTER     CLEAR     59  48  67 CALM      30.37R
CONCORD        CLEAR     51  47  86 E3        30.39R
LACONIA        CLEAR     54  46  76 CALM      30.37R
PLYMOUTH       FAIR      52  52 100 W3        30.39R
BERLIN         MOCLDY    49  47  93 CALM      30.39R
WHITEFIELD     CLEAR     49  45  86 CALM      30.40R
JAFFREY        CLEAR     48  46  93 CALM      30.41R
LEBANON        PTCLDY    52  48  86 CALM      30.39R
MT WASHINGTON  FOG       34  34 100 NW40G51     N/A  VSB 0   WCI  18
$$

VTZ005-007-008-240300-
VERMONT

CITY           SKY/WX    TMP DP  RH WIND       PRES   REMARKS
ST JOHNSBURY     N/A     51  49  92 MISG      30.39R
MONTPELIER     CLOUDY    52  49  89 CALM      30.44R
BURLINGTON     MOCLDY    55  51  86 S3        30.40R
$$

MAZ007-012-024-CTZ003-RIZ002-NYZ038-NYZ072-240300-
SOUTHERN NEW ENGLAND AND NY

CITY           SKY/WX    TMP DP  RH WIND       PRES   REMARKS
BOSTON         PTCLDY    63  47  55 NW7       30.39R
WORCESTER      CLEAR     53  48  83 W6        30.41R
NANTUCKET      CLEAR     57  46  66 CALM      30.40R
PROVIDENCE     CLEAR     58  48  69 W6        30.40R
HARTFORD       PTCLDY    56  50  80 W6        30.40R
ALBANY         PTCLDY    56  49  77 CALM      30.40R
NEW YORK CITY  PTCLDY    64  51  62 S8        30.38R
$$

ANZ081-ANZ082-ANZ150-NHZ014-MEZ023>029-240300-
COASTAL MARINE OBSERVATIONS

STATION/POSITION TIME  TEMP    WIND        PRES    WAVE
                       AIR SEA DIR/SP/G            HT/PER
                 (UTC) (F)     (DEG/KT/KT) (MB)    (FT/S)
MOUNT DESERT ROC 0200   56                 1027.7R
MATINICUS ROCK   0200          310/  9/  9 1027.5R
PORTLAND WX BUOY 0150   59 58  350/  6/  8 1028.0R   2/ 8
WELLS            0112   57 50  290/  4/  6 1027.2R
ISLE OF SHOALS   0200   60     310/ 12/ 13 1027.9R
JEFFREYS LEDGE   0121      60                N/A     2/ 9
CASHES LEDGE BUO 0150   60 58              1027.6R   3/ 9
$$

.............KEY..............
   WCI - WIND CHILL
   TC  - TEMPERATURE IN CELSIUS
   VSB - VISIBILITY IN MILES
   HX  - HEAT INDEX
   FAIR- INDICATES FEW OR NO CLOUDS BELOW 12,000 FT, WITH NO
         SIGNIFICANT WEATHER AND/OR OBSTRUCTIONS TO VISIBILITY.






U.S. Dept. of Commerce
NOAA National Weather Service
1325 East West Highway
Silver Spring, MD 20910
E-mail: w-nws.webmaster@noaa.gov
Page last modified: May 16, 2007
NATIONAL WEATHER SERVICE: for Safety, for Work, for Fun - FOR LIFE